Time,TemperatureF,DewpointF,PressureIn,WindDirection,WindDirectionDegrees,WindSpeedMPH,WindSpeedGustMPH,Humidity,HourlyPrecipIn,Conditions,Clouds,dailyrainin,SolarRadiationWatts/m^2,SoftwareType,DateUTC
2013-06-08 00:00:00,43.0,41.0,-100.00,NNE,22,0.0,-999.0,94,-99.99,,,-99.99,0.000000,,2013-06-08 05:00:00,
2013-06-08 00:32:00,43.0,41.0,-100.00,NNE,22,0.0,-999.0,94,-99.99,,,-99.99,0.000000,,2013-06-08 05:32:00,
2013-06-08 00:42:00,43.0,41.0,-100.00,NNE,22,0.0,-999.0,94,-99.99,,,-99.99,0.000000,,2013-06-08 05:42:00,
2013-06-08 00:53:00,43.0,41.0,-100.00,NNE,22,0.0,-999.0,94,-99.99,,,-99.99,0.000000,,2013-06-08 05:53:00,
2013-06-08 01:00:00,41.0,40.0,-100.00,NNW,337,0.0,-999.0,95,-99.99,,,-99.99,0.000000,,2013-06-08 06:00:00,
2013-06-08 01:32:00,41.0,40.0,-100.00,NNW,337,0.0,-999.0,95,-99.99,,,-99.99,0.000000,,2013-06-08 06:32:00,
2013-06-08 01:42:00,41.0,40.0,-100.00,NNW,337,0.0,-999.0,95,-99.99,,,-99.99,0.000000,,2013-06-08 06:42:00,
2013-06-08 01:53:00,41.0,40.0,-100.00,NNW,337,0.0,-999.0,95,-99.99,,,-99.99,0.000000,,2013-06-08 06:53:00,
2013-06-08 02:00:00,40.0,39.0,-100.00,SSW,202,0.0,-999.0,95,-99.99,,,-99.99,0.000000,,2013-06-08 07:00:00,
2013-06-08 02:32:00,40.0,39.0,-100.00,SSW,202,0.0,-999.0,95,-99.99,,,-99.99,0.000000,,2013-06-08 07:32:00,
2013-06-08 02:42:00,40.0,39.0,-100.00,SSW,202,0.0,-999.0,95,-99.99,,,-99.99,0.000000,,2013-06-08 07:42:00,
2013-06-08 02:52:00,40.0,39.0,-100.00,SSW,202,0.0,-999.0,95,-99.99,,,-99.99,0.000000,,2013-06-08 07:52:00,
2013-06-08 03:00:00,41.0,40.0,-100.00,WNW,292,0.0,-999.0,96,-99.99,,,-99.99,0.000000,,2013-06-08 08:00:00,
2013-06-08 03:32:00,41.0,40.0,-100.00,WNW,292,0.0,-999.0,96,-99.99,,,-99.99,0.000000,,2013-06-08 08:32:00,
2013-06-08 03:42:00,41.0,40.0,-100.00,WNW,292,0.0,-999.0,96,-99.99,,,-99.99,0.000000,,2013-06-08 08:42:00,
2013-06-08 03:53:00,41.0,40.0,-100.00,WNW,292,0.0,-999.0,96,-99.99,,,-99.99,0.000000,,2013-06-08 08:53:00,
2013-06-08 04:00:00,41.0,40.0,-100.00,WNW,292,0.0,-999.0,96,-99.99,,,-99.99,0.000000,,2013-06-08 09:00:00,
2013-06-08 04:33:00,41.0,40.0,-100.00,WNW,292,0.0,-999.0,96,-99.99,,,-99.99,0.000000,,2013-06-08 09:33:00,
2013-06-08 04:43:00,41.0,40.0,-100.00,WNW,292,0.0,-999.0,96,-99.99,,,-99.99,0.000000,,2013-06-08 09:43:00,
2013-06-08 04:53:00,41.0,40.0,-100.00,WNW,292,0.0,-999.0,96,-99.99,,,-99.99,0.000000,,2013-06-08 09:53:00,
2013-06-08 05:00:00,43.0,42.0,-100.00,NNE,22,0.0,-999.0,96,-99.99,,,-99.99,0.000000,,2013-06-08 10:00:00,
2013-06-08 05:33:00,43.0,42.0,-100.00,NNE,22,0.0,-999.0,96,-99.99,,,-99.99,0.000000,,2013-06-08 10:33:00,
2013-06-08 05:43:00,43.0,42.0,-100.00,NNE,22,0.0,-999.0,96,-99.99,,,-99.99,0.000000,,2013-06-08 10:43:00,
2013-06-08 05:53:00,43.0,42.0,-100.00,NNE,22,0.0,-999.0,96,-99.99,,,-99.99,0.000000,,2013-06-08 10:53:00,
2013-06-08 06:00:00,45.0,44.0,-100.00,NNE,22,0.0,-999.0,96,-99.99,,,-99.99,16.240000,,2013-06-08 11:00:00,
2013-06-08 06:32:00,45.0,44.0,-100.00,NNE,22,0.0,-999.0,96,-99.99,,,-99.99,16.240000,,2013-06-08 11:32:00,
2013-06-08 06:42:00,45.0,44.0,-100.00,NNE,22,0.0,-999.0,96,-99.99,,,-99.99,16.240000,,2013-06-08 11:42:00,
2013-06-08 06:52:00,45.0,44.0,-100.00,NNE,22,0.0,-999.0,96,-99.99,,,-99.99,16.240000,,2013-06-08 11:52:00,
2013-06-08 07:00:00,49.0,48.0,-100.00,NNE,22,0.0,-999.0,96,-99.99,,,-99.99,54.520000,,2013-06-08 12:00:00,
2013-06-08 07:33:00,49.0,48.0,-100.00,NNE,22,0.0,-999.0,96,-99.99,,,-99.99,54.520000,,2013-06-08 12:33:00,
2013-06-08 07:42:00,49.0,48.0,-100.00,NNE,22,0.0,-999.0,96,-99.99,,,-99.99,54.520000,,2013-06-08 12:42:00,
2013-06-08 07:52:00,49.0,48.0,-100.00,NNE,22,0.0,-999.0,96,-99.99,,,-99.99,54.520000,,2013-06-08 12:52:00,
2013-06-08 08:00:00,53.0,50.0,-100.00,ENE,67,0.0,-999.0,91,-99.99,,,-99.99,82.360001,,2013-06-08 13:00:00,
2013-06-08 08:32:00,53.0,50.0,-100.00,ENE,67,0.0,-999.0,91,-99.99,,,-99.99,82.360001,,2013-06-08 13:32:00,
2013-06-08 08:42:00,53.0,50.0,-100.00,ENE,67,0.0,-999.0,91,-99.99,,,-99.99,82.360001,,2013-06-08 13:42:00,
2013-06-08 08:52:00,53.0,50.0,-100.00,ENE,67,0.0,-999.0,91,-99.99,,,-99.99,82.360001,,2013-06-08 13:52:00,
2013-06-08 09:00:00,55.0,49.0,-100.00,SSE,157,1.0,-999.0,80,-99.99,,,-99.99,93.959999,,2013-06-08 14:00:00,
2013-06-08 09:32:00,55.0,49.0,-100.00,SSE,157,1.0,-999.0,80,-99.99,,,-99.99,93.959999,,2013-06-08 14:32:00,
2013-06-08 09:42:00,55.0,49.0,-100.00,SSE,157,1.0,-999.0,80,-99.99,,,-99.99,93.959999,,2013-06-08 14:42:00,
2013-06-08 09:52:00,55.0,49.0,-100.00,SSE,157,1.0,-999.0,80,-99.99,,,-99.99,93.959999,,2013-06-08 14:52:00,
2013-06-08 10:00:00,61.0,44.0,-100.00,SSE,157,3.0,-999.0,54,-99.99,,,-99.99,178.639999,,2013-06-08 15:00:00,
2013-06-08 10:33:00,61.0,44.0,-100.00,SSE,157,3.0,-999.0,54,-99.99,,,-99.99,178.639999,,2013-06-08 15:33:00,
2013-06-08 10:43:00,61.0,44.0,-100.00,SSE,157,3.0,-999.0,54,-99.99,,,-99.99,178.639999,,2013-06-08 15:43:00,
2013-06-08 10:53:00,61.0,44.0,-100.00,SSE,157,3.0,-999.0,54,-99.99,,,-99.99,178.639999,,2013-06-08 15:53:00,
2013-06-08 11:00:00,63.0,46.0,-100.00,SW,225,2.0,-999.0,54,-99.99,,,-99.99,186.759995,,2013-06-08 16:00:00,
2013-06-08 11:33:00,63.0,46.0,-100.00,SW,225,2.0,-999.0,54,-99.99,,,-99.99,186.759995,,2013-06-08 16:33:00,
2013-06-08 11:42:00,63.0,46.0,-100.00,SW,225,2.0,-999.0,54,-99.99,,,-99.99,186.759995,,2013-06-08 16:42:00,
2013-06-08 11:53:00,63.0,46.0,-100.00,SW,225,2.0,-999.0,54,-99.99,,,-99.99,186.759995,,2013-06-08 16:53:00,
2013-06-08 12:00:00,63.0,48.0,-100.00,North,0,2.0,-999.0,58,-99.99,,,-99.99,394.399994,,2013-06-08 17:00:00,
2013-06-08 12:32:00,63.0,48.0,-100.00,North,0,2.0,-999.0,58,-99.99,,,-99.99,394.399994,,2013-06-08 17:32:00,
2013-06-08 12:42:00,63.0,48.0,-100.00,North,0,2.0,-999.0,58,-99.99,,,-99.99,394.399994,,2013-06-08 17:42:00,
2013-06-08 12:52:00,63.0,48.0,-100.00,North,0,2.0,-999.0,58,-99.99,,,-99.99,394.399994,,2013-06-08 17:52:00,
2013-06-08 13:00:00,65.0,48.0,-100.00,SE,135,3.0,-999.0,53,-99.99,,,-99.99,720.359985,,2013-06-08 18:00:00,
2013-06-08 13:32:00,65.0,48.0,-100.00,SE,135,3.0,-999.0,53,-99.99,,,-99.99,720.359985,,2013-06-08 18:32:00,
2013-06-08 13:42:00,65.0,48.0,-100.00,SE,135,3.0,-999.0,53,-99.99,,,-99.99,720.359985,,2013-06-08 18:42:00,
2013-06-08 13:52:00,65.0,48.0,-100.00,SE,135,3.0,-999.0,53,-99.99,,,-99.99,720.359985,,2013-06-08 18:52:00,
2013-06-08 14:00:00,70.0,43.0,-100.00,SE,135,3.0,-999.0,36,-99.99,,,-99.99,682.080017,,2013-06-08 19:00:00,
2013-06-08 14:32:00,70.0,43.0,-100.00,SE,135,3.0,-999.0,36,-99.99,,,-99.99,682.080017,,2013-06-08 19:32:00,
2013-06-08 14:42:00,70.0,43.0,-100.00,SE,135,3.0,-999.0,36,-99.99,,,-99.99,682.080017,,2013-06-08 19:42:00,
2013-06-08 14:53:00,70.0,43.0,-100.00,SE,135,3.0,-999.0,36,-99.99,,,-99.99,682.080017,,2013-06-08 19:53:00,
2013-06-08 15:00:00,70.0,43.0,-100.00,WNW,292,2.0,-999.0,37,-99.99,,,-99.99,586.960022,,2013-06-08 20:00:00,
2013-06-08 15:32:00,70.0,43.0,-100.00,WNW,292,2.0,-999.0,37,-99.99,,,-99.99,586.960022,,2013-06-08 20:32:00,
2013-06-08 15:42:00,70.0,43.0,-100.00,WNW,292,2.0,-999.0,37,-99.99,,,-99.99,586.960022,,2013-06-08 20:42:00,
2013-06-08 15:53:00,70.0,43.0,-100.00,WNW,292,2.0,-999.0,37,-99.99,,,-99.99,586.960022,,2013-06-08 20:53:00,
2013-06-08 16:00:00,69.0,44.0,-100.00,WNW,292,2.0,-999.0,39,-99.99,,,-99.99,525.479980,,2013-06-08 21:00:00,
2013-06-08 16:33:00,69.0,44.0,-100.00,WNW,292,2.0,-999.0,39,-99.99,,,-99.99,525.479980,,2013-06-08 21:33:00,
2013-06-08 16:43:00,69.0,44.0,-100.00,WNW,292,2.0,-999.0,39,-99.99,,,-99.99,525.479980,,2013-06-08 21:43:00,
2013-06-08 16:53:00,69.0,44.0,-100.00,WNW,292,2.0,-999.0,39,-99.99,,,-99.99,525.479980,,2013-06-08 21:53:00,
2013-06-08 17:00:00,71.0,41.0,-100.00,SE,135,3.0,-999.0,33,-99.99,,,-99.99,469.799988,,2013-06-08 22:00:00,
2013-06-08 17:33:00,71.0,41.0,-100.00,SE,135,3.0,-999.0,33,-99.99,,,-99.99,469.799988,,2013-06-08 22:33:00,
2013-06-08 17:43:00,71.0,41.0,-100.00,SE,135,3.0,-999.0,33,-99.99,,,-99.99,469.799988,,2013-06-08 22:43:00,
2013-06-08 17:53:00,71.0,41.0,-100.00,SE,135,3.0,-999.0,33,-99.99,,,-99.99,469.799988,,2013-06-08 22:53:00,
2013-06-08 18:00:00,69.0,39.0,-100.00,SE,135,5.0,-999.0,33,-99.99,,,-99.99,281.880005,,2013-06-08 23:00:00,
2013-06-08 18:32:00,69.0,39.0,-100.00,SE,135,5.0,-999.0,33,-99.99,,,-99.99,281.880005,,2013-06-08 23:32:00,
2013-06-08 18:42:00,69.0,39.0,-100.00,SE,135,5.0,-999.0,33,-99.99,,,-99.99,281.880005,,2013-06-08 23:42:00,
2013-06-08 18:52:00,69.0,39.0,-100.00,SE,135,5.0,-999.0,33,-99.99,,,-99.99,281.880005,,2013-06-08 23:52:00,
2013-06-08 19:00:00,68.0,39.0,-100.00,SSE,157,3.0,-999.0,33,-99.99,,,-99.99,132.240005,,2013-06-09 00:00:00,
2013-06-08 19:32:00,68.0,39.0,-100.00,SSE,157,3.0,-999.0,33,-99.99,,,-99.99,132.240005,,2013-06-09 00:32:00,
2013-06-08 19:42:00,68.0,39.0,-100.00,SSE,157,3.0,-999.0,33,-99.99,,,-99.99,132.240005,,2013-06-09 00:42:00,
2013-06-08 19:52:00,68.0,39.0,-100.00,SSE,157,3.0,-999.0,33,-99.99,,,-99.99,132.240005,,2013-06-09 00:52:00,
2013-06-08 20:00:00,64.0,43.0,-100.00,SE,135,1.0,-999.0,46,-99.99,,,-99.99,73.080002,,2013-06-09 01:00:00,
2013-06-08 20:32:00,64.0,43.0,-100.00,SE,135,1.0,-999.0,46,-99.99,,,-99.99,73.080002,,2013-06-09 01:32:00,
2013-06-08 20:42:00,64.0,43.0,-100.00,SE,135,1.0,-999.0,46,-99.99,,,-99.99,73.080002,,2013-06-09 01:42:00,
2013-06-08 20:52:00,64.0,43.0,-100.00,SE,135,1.0,-999.0,46,-99.99,,,-99.99,73.080002,,2013-06-09 01:52:00,
2013-06-08 21:00:00,53.0,47.0,-100.00,ESE,112,0.0,-999.0,79,-99.99,,,-99.99,11.600000,,2013-06-09 02:00:00,
2013-06-08 21:32:00,53.0,47.0,-100.00,ESE,112,0.0,-999.0,79,-99.99,,,-99.99,11.600000,,2013-06-09 02:32:00,
2013-06-08 22:00:00,47.0,45.0,-100.00,ESE,112,0.0,-999.0,91,-99.99,,,-99.99,0.000000,,2013-06-09 03:00:00,
2013-06-08 23:33:00,44.0,43.0,-100.00,East,90,0.0,-999.0,94,-99.99,,,-99.99,0.000000,,2013-06-09 04:33:00,